GW6132 Weather Reports


Display with metric or nautical units.
time (UTC)temp
F
wind
direction
speed
MPH
gust
MPH
rain 1hr
in
rain 24hr
in
rain mn
in
humidity
%
barometer
mb
20260504022222 74 257 0.0 2.0 0.00 0.00 0.10 95 1019.0
20260504021722 74 239 0.0 1.0 0.00 0.00 0.10 95 1019.0
20260504021222 74 334 0.0 0.0 0.00 0.00 0.10 95 1019.0
20260504020722 74 34 0.0 0.0 0.00 0.00 0.10 95 1019.0
20260504020223 73 313 0.0 0.0 0.00 0.00 0.10 95 1019.0
20260504015722 73 341 0.0 2.0 0.00 0.00 0.10 94 1019.0
20260504015222 73 354 0.0 3.0 0.00 0.00 0.10 94 1019.0
20260504014722 73 39 2.0 4.0 0.00 0.00 0.10 94 1019.0
20260504014222 73 42 2.0 4.0 0.00 0.00 0.10 94 1019.0
20260504013722 73 36 1.0 3.0 0.00 0.00 0.10 94 1019.0
20260504013222 73 55 2.0 4.0 0.00 0.00 0.10 95 1019.0
20260504012722 73 53 1.0 3.0 0.00 0.00 0.10 95 1019.0
20260504012225 73 35 2.0 4.0 0.00 0.00 0.10 94 1019.0
20260504011722 73 29 2.0 3.0 0.00 0.00 0.10 94 1019.0
20260504011223 73 351 1.0 3.0 0.00 0.00 0.10 94 1019.0
20260504010723 73 348 1.0 3.0 0.00 0.00 0.09 94 1019.0
20260504010223 73 357 2.0 4.0 0.00 0.00 0.09 94 1019.0
20260504005723 73 3 2.0 3.0 0.00 0.00 0.09 94 1018.0
20260504005226 73 58 3.0 8.0 0.00 0.00 0.08 94 1018.0
20260504004725 73 31 2.0 4.0 0.00 0.00 0.08 94 1018.0
20260504004222 73 46 3.0 4.0 0.00 0.00 0.08 94 1018.0
20260504003722 73 67 3.0 6.0 0.00 0.00 0.08 93 1018.0
20260504003223 73 46 3.0 7.0 0.00 0.00 0.08 93 1018.0
20260504002722 74 63 5.0 9.0 0.00 0.00 0.08 93 1018.0
20260504002222 74 63 4.0 7.0 0.00 0.00 0.08 92 1018.0
20260504001722 74 20 4.0 8.0 0.00 0.00 0.08 91 1018.0
20260504001222 74 32 8.0 13.0 0.00 0.00 0.08 90 1018.0
20260504000722 74 45 7.0 13.0 0.00 0.00 0.08 89 1018.0
20260504000226 75 4 8.0 13.0 0.00 0.00 0.08 88 1018.0
20260503235722 76 68 8.0 11.0 0.00 0.00 0.08 86 1018.0
20260503235222 76 60 7.0 11.0 0.00 0.00 0.08 84 1017.0
20260503234722 77 7 5.0 8.0 0.00 0.00 0.08 81 1017.0
20260503234222 77 58 7.0 10.0 0.00 0.00 0.08 81 1017.0
20260503233722 77 96 6.0 9.0 0.00 0.00 0.08 80 1017.0
20260503233222 77 17 6.0 10.0 0.00 0.00 0.08 80 1017.0
20260503232722 77 59 6.0 9.0 0.00 0.00 0.08 80 1017.0
20260503232222 77 17 6.0 8.0 0.00 0.00 0.08 80 1017.0
20260503231722 78 4 6.0 10.0 0.00 0.00 0.08 79 1017.0
20260503231222 78 37 8.0 12.0 0.00 0.00 0.08 79 1017.0
20260503230722 78 30 7.0 10.0 0.00 0.00 0.08 80 1017.0
20260503230222 78 50 6.0 9.0 0.00 0.00 0.08 79 1017.0
20260503225722 78 51 6.0 10.0 0.00 0.00 0.08 79 1017.0
20260503225222 78 75 7.0 10.0 0.00 0.00 0.08 78 1017.0
20260503224722 78 64 5.0 11.0 0.00 0.00 0.08 78 1017.0
20260503224222 79 58 5.0 7.0 0.00 0.00 0.08 78 1017.0
20260503223722 79 75 4.0 7.0 0.00 0.00 0.08 78 1017.0
20260503223223 79 56 4.0 8.0 0.00 0.00 0.08 78 1017.0
20260503222722 79 97 5.0 9.0 0.00 0.00 0.08 77 1017.0
20260503222222 80 91 5.0 11.0 0.00 0.00 0.08 76 1017.0
20260503221722 80 101 3.0 5.0 0.00 0.00 0.08 76 1017.0
20260503221222 81 110 1.0 2.0 0.00 0.00 0.08 77 1017.0
20260503220723 80 148 1.0 2.0 0.00 0.00 0.08 77 1017.0
20260503220222 80 126 1.0 3.0 0.00 0.00 0.08 77 1017.0
20260503215722 80 342 1.0 3.0 0.00 0.00 0.08 78 1017.0
20260503215222 80 127 2.0 3.0 0.00 0.00 0.08 76 1017.0
20260503214722 80 46 1.0 4.0 0.00 0.00 0.08 78 1017.0
20260503214223 81 87 2.0 4.0 0.00 0.00 0.08 78 1017.0
20260503213722 81 179 2.0 4.0 0.00 0.00 0.08 77 1017.0
20260503213222 81 129 2.0 3.0 0.00 0.00 0.08 77 1017.0
20260503212722 81 137 2.0 4.0 0.00 0.00 0.08 78 1017.0
20260503212222 81 197 2.0 5.0 0.00 0.00 0.08 78 1017.0
20260503211723 81 285 2.0 4.0 0.00 0.00 0.08 80 1018.0
20260503211222 80 116 3.0 5.0 0.00 0.00 0.08 77 1017.0
20260503210722 81 100 3.0 5.0 0.00 0.00 0.08 76 1018.0
20260503210223 81 182 4.0 6.0 0.00 0.00 0.08 77 1018.0
20260503205722 81 233 4.0 7.0 0.00 0.00 0.08 79 1018.0
20260503205223 81 153 3.0 5.0 0.00 0.00 0.08 77 1018.0
20260503204722 81 200 2.0 4.0 0.00 0.00 0.08 79 1018.0
20260503204222 80 173 2.0 4.0 0.00 0.00 0.08 80 1018.0
20260503203723 80 159 3.0 6.0 0.00 0.00 0.08 80 1018.0
20260503203222 80 199 4.0 7.0 0.00 0.00 0.08 80 1018.0
20260503202722 80 157 3.0 4.0 0.00 0.00 0.08 80 1018.0
20260503202223 80 167 2.0 3.0 0.00 0.00 0.08 80 1019.0
20260503201722 80 198 0.0 2.0 0.00 0.00 0.08 79 1019.0
20260503201222 80 336 0.0 2.0 0.00 0.00 0.08 80 1019.0
20260503200722 80 309 1.0 3.0 0.00 0.00 0.08 81 1019.0
20260503200222 80 186 2.0 4.0 0.00 0.00 0.08 81 1019.0
20260503195722 80 166 2.0 4.0 0.00 0.00 0.08 82 1019.0
20260503195222 80 154 2.0 4.0 0.00 0.00 0.08 82 1019.0
20260503194722 80 158 2.0 4.0 0.00 0.00 0.08 83 1019.0
20260503194223 80 176 2.0 5.0 0.00 0.00 0.08 82 1019.0
20260503193723 79 128 2.0 4.0 0.00 0.00 0.08 82 1019.0
20260503193222 79 175 3.0 6.0 0.00 0.00 0.08 83 1019.0
20260503192722 79 213 3.0 5.0 0.00 0.00 0.08 83 1019.0
20260503192223 79 186 2.0 4.0 0.00 0.00 0.08 84 1019.0
20260503191722 78 129 2.0 5.0 0.00 0.00 0.08 86 1019.0
20260503191223 78 130 3.0 6.0 0.00 0.00 0.08 86 1019.0
20260503190722 78 107 3.0 5.0 0.00 0.00 0.08 87 1020.0
20260503190222 78 116 3.0 6.0 0.00 0.00 0.08 86 1020.0
20260503185722 78 110 3.0 6.0 0.00 0.00 0.08 87 1020.0
20260503185222 78 130 3.0 6.0 0.00 0.00 0.08 87 1020.0
20260503184723 77 157 3.0 6.0 0.00 0.00 0.08 88 1020.0
20260503184222 77 125 3.0 6.0 0.00 0.00 0.08 87 1020.0
20260503183723 78 129 4.0 6.0 0.00 0.00 0.08 87 1020.0
20260503183222 78 104 3.0 5.0 0.00 0.00 0.08 88 1020.0
20260503182722 77 91 3.0 6.0 0.00 0.00 0.08 88 1020.0
20260503182222 77 73 2.0 4.0 0.00 0.00 0.08 89 1020.0
20260503181722 77 121 3.0 6.0 0.00 0.00 0.08 88 1020.0
20260503181224 77 132 3.0 5.0 0.00 0.00 0.08 88 1021.0
20260503180723 77 87 3.0 6.0 0.00 0.00 0.08 87 1020.0
20260503180222 77 126 2.0 4.0 0.00 0.00 0.08 88 1021.0
20260503175722 77 125 2.0 4.0 0.00 0.00 0.08 89 1021.0
20260503175222 76 114 3.0 5.0 0.00 0.00 0.08 88 1021.0
20260503174723 77 146 1.0 4.0 0.00 0.00 0.08 88 1021.0
20260503174222 76 13 2.0 3.0 0.00 0.00 0.08 89 1021.0
20260503173722 77 147 2.0 4.0 0.00 0.00 0.08 88 1021.0
20260503173224 76 203 2.0 3.0 0.00 0.00 0.07 89 1021.0
20260503172722 76 225 1.0 3.0 0.00 0.00 0.07 89 1021.0
20260503172222 76 195 2.0 3.0 0.00 0.00 0.07 90 1021.0
20260503171723 76 84 2.0 4.0 0.00 0.00 0.07 90 1021.0
20260503171222 76 338 0.0 2.0 0.00 0.00 0.07 92 1021.0
20260503170722 76 162 1.0 3.0 0.00 0.00 0.07 92 1021.0
20260503170222 76 114 2.0 4.0 0.00 0.00 0.07 92 1021.0
20260503150722 76 70 4.0 8.0 0.00 0.00 0.00 91 1021.0
20260503150224 76 70 4.0 7.0 0.00 0.00 0.00 89 1021.0
20260503140222 75 86 6.0 9.0 0.00 0.00 0.00 91 1020.0
20260503131222 75 92 3.0 6.0 0.00 0.00 0.00 91 1019.0
20260503130722 74 103 4.0 7.0 0.00 0.00 0.00 91 1018.0
20260503130223 74 141 3.0 7.0 0.00 0.00 0.00 91 1018.0
20260503120222 74 161 4.0 6.0 0.00 0.00 0.00 91 1017.0
20260503110722 75 121 1.0 2.0 0.00 0.00 0.00 89 1017.0
20260503110222 75 155 2.0 3.0 0.00 0.00 0.00 89 1017.0
20260503100222 75 129 4.0 6.0 0.00 0.00 0.00 84 1017.0
20260503090222 76 165 3.0 7.0 0.00 0.00 0.00 82 1017.0
20260503081222 76 153 3.0 5.0 0.00 0.00 0.00 81 1017.0
20260503080722 76 246 3.0 6.0 0.00 0.00 0.00 81 1017.0
20260503080222 76 213 4.0 7.0 0.00 0.00 0.00 81 1017.0
20260503072722 76 200 3.0 6.0 0.00 0.00 0.00 82 1018.0
20260503072222 76 172 2.0 5.0 0.00 0.00 0.00 82 1018.0
20260503071723 76 194 3.0 6.0 0.00 0.00 0.00 82 1018.0
20260503071222 77 231 3.0 7.0 0.00 0.00 0.00 81 1018.0
20260503070722 77 184 3.0 7.0 0.00 0.00 0.00 81 1018.0
20260503070222 76 154 3.0 7.0 0.00 0.00 0.00 81 1018.0
20260503060222 78 149 3.0 6.0 0.00 0.00 0.00 79 1019.0
20260503054723 78 126 3.0 6.0 0.00 0.00 0.00 79 1018.0
20260503054222 78 151 3.0 7.0 0.00 0.00 0.00 78 1018.0
20260503053722 78 151 3.0 6.0 0.00 0.00 0.00 78 1018.0
20260503053222 78 167 2.0 4.0 0.00 0.00 0.00 78 1018.0
20260503052722 78 334 2.0 5.0 0.00 0.00 0.00 78 1018.0
20260503052222 78 175 2.0 5.0 0.00 0.00 0.00 78 1018.0
20260503051723 78 177 2.0 5.0 0.00 0.00 0.00 78 1018.0
20260503051222 78 217 2.0 4.0 0.00 0.00 0.00 78 1018.0
20260503050722 78 145 2.0 4.0 0.00 0.00 0.00 78 1018.0
20260503050222 78 173 2.0 4.0 0.00 0.00 0.00 78 1018.0
20260503045723 78 214 3.0 6.0 0.00 0.00 0.00 78 1018.0
20260503045222 78 139 3.0 7.0 0.00 0.00 0.00 78 1018.0
20260503044723 78 109 2.0 5.0 0.00 0.00 0.00 77 1018.0
20260503044222 78 228 3.0 5.0 0.00 0.00 0.00 77 1018.0
20260503043722 78 189 3.0 7.0 0.00 0.00 0.00 77 1018.0
20260503043223 78 164 3.0 7.0 0.00 0.00 0.00 77 1018.0
20260503042722 78 197 3.0 5.0 0.00 0.00 0.00 77 1018.0
20260503042222 78 198 3.0 6.0 0.00 0.00 0.00 77 1018.0
20260503041223 78 150 4.0 6.0 0.00 0.00 0.00 76 1018.0
20260503040721 78 210 5.0 8.0 0.00 0.00 0.00 76 1017.0
20260503040222 78 176 5.0 8.0 0.00 0.00 0.00 75 1017.0
20260503035722 78 194 4.0 6.0 0.00 0.00 0.00 75 1017.0
20260503035222 78 187 3.0 7.0 0.00 0.00 0.00 75 1017.0
20260503034722 79 156 3.0 5.0 0.00 0.00 0.00 74 1017.0
20260503034222 79 189 3.0 6.0 0.00 0.00 0.00 74 1017.0
20260503033722 79 192 2.0 4.0 0.00 0.00 0.00 73 1017.0
20260503033223 79 200 2.0 3.0 0.00 0.00 0.00 73 1017.0
20260503032722 79 125 3.0 5.0 0.00 0.00 0.00 72 1017.0
20260503032222 79 161 3.0 5.0 0.00 0.00 0.00 71 1017.0
20260503031722 79 181 3.0 4.0 0.00 0.00 0.00 71 1017.0
20260503031222 79 13 1.0 3.0 0.00 0.00 0.00 71 1017.0
20260503030723 79 192 1.0 3.0 0.00 0.00 0.00 71 1017.0
20260503030223 80 193 2.0 4.0 0.00 0.00 0.00 71 1017.0
20260503025723 80 69 1.0 3.0 0.00 0.00 0.00 70 1017.0
20260503025222 80 358 1.0 3.0 0.00 0.00 0.00 70 1017.0
20260503024722 80 58 2.0 4.0 0.00 0.00 0.00 69 1017.0
20260503024222 80 86 3.0 4.0 0.00 0.00 0.00 69 1017.0
20260503023722 80 59 3.0 7.0 0.00 0.00 0.00 69 1017.0
20260503023222 80 72 4.0 7.0 0.00 0.00 0.00 69 1017.0
20260503022723 80 82 3.0 5.0 0.00 0.00 0.00 70 1017.0